Time,TemperatureF,DewpointF,PressureIn,WindDirection,WindDirectionDegrees,WindSpeedMPH,WindSpeedGustMPH,Humidity,HourlyPrecipIn,Conditions,Clouds,dailyrainin,SoftwareType,DateUTC
2013-05-20 00:01:00,78.5,72.5,30.08,East,98,1.0,3.0,82,0.00,,,0.00,Wunderground v.1.15,2013-05-20 04:01:00,
2013-05-20 00:02:00,78.5,72.5,30.08,East,94,1.0,3.0,82,0.00,,,0.00,Wunderground v.1.15,2013-05-20 04:02:00,
2013-05-20 00:03:00,78.5,72.5,30.08,East,101,0.0,3.0,82,0.00,,,0.00,Wunderground v.1.15,2013-05-20 04:03:00,
2013-05-20 00:04:00,78.5,72.5,30.08,East,99,1.0,3.0,82,0.00,,,0.00,Wunderground v.1.15,2013-05-20 04:04:00,
2013-05-20 00:06:00,78.5,72.5,30.08,ESE,105,0.0,3.0,82,0.00,,,0.00,Wunderground v.1.15,2013-05-20 04:06:00,
2013-05-20 00:12:00,78.5,72.5,30.07,ESE,108,4.0,4.0,82,0.00,,,0.00,Wunderground v.1.15,2013-05-20 04:12:00,
2013-05-20 00:17:00,78.5,72.5,30.07,East,87,0.0,4.0,82,0.00,,,0.00,Wunderground v.1.15,2013-05-20 04:17:00,
2013-05-20 00:22:00,78.5,72.2,30.07,ESE,115,0.0,2.0,81,0.00,,,0.00,Wunderground v.1.15,2013-05-20 04:22:00,
2013-05-20 00:27:00,78.5,72.2,30.07,East,90,0.0,2.0,81,0.00,,,0.00,Wunderground v.1.15,2013-05-20 04:27:00,
2013-05-20 00:33:00,78.4,72.1,30.06,East,88,0.0,1.0,81,0.00,,,0.00,Wunderground v.1.15,2013-05-20 04:33:00,
2013-05-20 00:38:00,78.4,72.1,30.07,East,85,0.0,2.0,81,0.00,,,0.00,Wunderground v.1.15,2013-05-20 04:38:00,
2013-05-20 00:43:00,78.4,72.1,30.07,ESE,103,1.0,3.0,81,0.00,,,0.00,Wunderground v.1.15,2013-05-20 04:43:00,
2013-05-20 00:48:00,78.3,72.0,30.07,ENE,73,0.0,3.0,81,0.00,,,0.00,Wunderground v.1.15,2013-05-20 04:48:00,
2013-05-20 00:53:00,78.3,72.3,30.07,East,101,1.0,1.0,82,0.00,,,0.00,Wunderground v.1.15,2013-05-20 04:53:00,
2013-05-20 00:59:00,78.3,72.3,30.07,ESE,115,0.0,1.0,82,0.00,,,0.00,Wunderground v.1.15,2013-05-20 04:59:00,
2013-05-20 01:05:00,78.2,72.3,30.07,East,101,1.0,3.0,82,0.00,,,0.00,Wunderground v.1.15,2013-05-20 05:05:00,
2013-05-20 01:10:00,78.2,72.3,30.07,ESE,106,0.0,0.0,82,0.00,,,0.00,Wunderground v.1.15,2013-05-20 05:10:00,
2013-05-20 01:15:00,78.1,72.2,30.07,ESE,114,2.0,2.0,82,0.00,,,0.00,Wunderground v.1.15,2013-05-20 05:15:00,
2013-05-20 01:20:00,78.1,72.2,30.07,East,87,0.0,0.0,82,0.00,,,0.00,Wunderground v.1.15,2013-05-20 05:20:00,
2013-05-20 01:25:00,77.9,72.0,30.06,East,86,0.0,0.0,82,0.00,,,0.00,Wunderground v.1.15,2013-05-20 05:25:00,
2013-05-20 01:30:00,77.8,72.2,30.06,ESE,108,0.0,0.0,83,0.00,,,0.00,Wunderground v.1.15,2013-05-20 05:30:00,
2013-05-20 01:36:00,77.7,72.1,30.06,ESE,113,0.0,0.0,83,0.00,,,0.00,Wunderground v.1.15,2013-05-20 05:36:00,
2013-05-20 01:41:00,77.6,72.0,30.06,ESE,111,0.0,0.0,83,0.00,,,0.00,Wunderground v.1.15,2013-05-20 05:41:00,
2013-05-20 01:46:00,77.6,72.0,30.05,SE,129,0.0,1.0,83,0.00,,,0.00,Wunderground v.1.15,2013-05-20 05:46:00,
2013-05-20 01:51:00,77.6,72.4,30.05,East,101,0.0,0.0,84,0.00,,,0.00,Wunderground v.1.15,2013-05-20 05:51:00,
2013-05-20 01:56:00,77.5,72.3,30.04,East,87,0.0,1.0,84,0.00,,,0.00,Wunderground v.1.15,2013-05-20 05:56:00,
2013-05-20 02:01:00,77.5,72.6,30.04,East,98,0.0,0.0,85,0.00,,,0.00,Wunderground v.1.15,2013-05-20 06:01:00,
2013-05-20 02:06:00,77.5,72.6,30.04,East,100,0.0,1.0,85,0.00,,,0.00,Wunderground v.1.15,2013-05-20 06:06:00,
2013-05-20 02:11:00,77.5,72.6,30.04,East,99,0.0,0.0,85,0.00,,,0.00,Wunderground v.1.15,2013-05-20 06:11:00,
2013-05-20 02:16:00,77.4,72.9,30.04,ESE,108,0.0,2.0,86,0.00,,,0.00,Wunderground v.1.15,2013-05-20 06:16:00,
2013-05-20 02:21:00,77.6,73.1,30.03,East,85,0.0,2.0,86,0.00,,,0.00,Wunderground v.1.15,2013-05-20 06:21:00,
2013-05-20 02:26:00,77.8,72.9,30.03,ESE,104,1.0,4.0,85,0.00,,,0.00,Wunderground v.1.15,2013-05-20 06:26:00,
2013-05-20 02:31:00,77.9,73.0,30.03,East,92,1.0,3.0,85,0.00,,,0.00,Wunderground v.1.15,2013-05-20 06:31:00,
2013-05-20 02:36:00,78.1,72.9,30.03,SE,132,0.0,5.0,84,0.00,,,0.00,Wunderground v.1.15,2013-05-20 06:36:00,
2013-05-20 02:41:00,78.1,72.9,30.03,East,88,0.0,1.0,84,0.00,,,0.00,Wunderground v.1.15,2013-05-20 06:41:00,
2013-05-20 02:46:00,78.0,72.8,30.03,East,98,0.0,2.0,84,0.00,,,0.00,Wunderground v.1.15,2013-05-20 06:46:00,
2013-05-20 02:51:00,78.0,72.8,30.03,ESE,112,0.0,2.0,84,0.00,,,0.00,Wunderground v.1.15,2013-05-20 06:51:00,
2013-05-20 02:56:00,78.0,73.1,30.03,ESE,108,0.0,2.0,85,0.00,,,0.00,Wunderground v.1.15,2013-05-20 06:56:00,
2013-05-20 03:01:00,78.0,73.1,30.03,SE,127,0.0,3.0,85,0.00,,,0.00,Wunderground v.1.15,2013-05-20 07:01:00,
2013-05-20 03:06:00,77.9,73.0,30.03,ESE,111,0.0,3.0,85,0.00,,,0.00,Wunderground v.1.15,2013-05-20 07:06:00,
2013-05-20 03:12:00,77.8,72.9,30.03,ESE,103,0.0,1.0,85,0.00,,,0.00,Wunderground v.1.15,2013-05-20 07:12:00,
2013-05-20 03:17:00,77.8,72.9,30.03,SE,136,0.0,1.0,85,0.00,,,0.00,Wunderground v.1.15,2013-05-20 07:17:00,
2013-05-20 03:22:00,77.7,73.2,30.03,ESE,117,0.0,0.0,86,0.00,,,0.00,Wunderground v.1.15,2013-05-20 07:22:00,
2013-05-20 03:27:00,77.6,73.1,30.02,East,86,2.0,2.0,86,0.00,,,0.00,Wunderground v.1.15,2013-05-20 07:27:00,
2013-05-20 03:32:00,77.6,73.1,30.02,ESE,110,0.0,1.0,86,0.00,,,0.00,Wunderground v.1.15,2013-05-20 07:32:00,
2013-05-20 03:37:00,77.5,73.0,30.02,East,94,0.0,1.0,86,0.00,,,0.00,Wunderground v.1.15,2013-05-20 07:37:00,
2013-05-20 03:42:00,77.4,73.2,30.02,ESE,106,0.0,1.0,87,0.00,,,0.00,Wunderground v.1.15,2013-05-20 07:42:00,
2013-05-20 03:47:00,77.4,73.2,30.01,South,170,0.0,2.0,87,0.00,,,0.00,Wunderground v.1.15,2013-05-20 07:47:00,
2013-05-20 03:52:00,77.4,73.2,30.01,ESE,108,0.0,1.0,87,0.00,,,0.00,Wunderground v.1.15,2013-05-20 07:52:00,
2013-05-20 03:57:00,77.4,73.2,30.01,ESE,110,0.0,1.0,87,0.00,,,0.00,Wunderground v.1.15,2013-05-20 07:57:00,
2013-05-20 04:02:00,77.4,73.2,30.01,ESE,104,0.0,0.0,87,0.00,,,0.00,Wunderground v.1.15,2013-05-20 08:02:00,
2013-05-20 04:07:00,77.3,73.1,30.01,East,83,0.0,1.0,87,0.00,,,0.00,Wunderground v.1.15,2013-05-20 08:07:00,
2013-05-20 04:12:00,77.3,73.1,30.01,East,86,1.0,2.0,87,0.00,,,0.00,Wunderground v.1.15,2013-05-20 08:12:00,
2013-05-20 04:17:00,77.3,73.1,30.01,East,98,0.0,2.0,87,0.00,,,0.00,Wunderground v.1.15,2013-05-20 08:17:00,
2013-05-20 04:22:00,77.3,73.1,30.01,ESE,105,2.0,2.0,87,0.00,,,0.00,Wunderground v.1.15,2013-05-20 08:22:00,
2013-05-20 04:27:00,77.4,73.2,30.02,East,96,0.0,2.0,87,0.00,,,0.00,Wunderground v.1.15,2013-05-20 08:27:00,
2013-05-20 04:32:00,77.4,73.2,30.01,East,94,0.0,0.0,87,0.00,,,0.00,Wunderground v.1.15,2013-05-20 08:32:00,
2013-05-20 04:37:00,77.3,73.1,30.01,SE,126,0.0,1.0,87,0.00,,,0.00,Wunderground v.1.15,2013-05-20 08:37:00,
2013-05-20 04:42:00,77.4,73.2,30.01,East,82,1.0,4.0,87,0.00,,,0.00,Wunderground v.1.15,2013-05-20 08:42:00,
2013-05-20 04:47:00,77.5,73.3,30.01,ESE,104,0.0,4.0,87,0.00,,,0.00,Wunderground v.1.15,2013-05-20 08:47:00,
2013-05-20 04:52:00,77.5,73.0,30.01,East,94,0.0,0.0,86,0.00,,,0.00,Wunderground v.1.15,2013-05-20 08:52:00,
2013-05-20 04:57:00,77.4,72.9,30.02,ESE,115,0.0,2.0,86,0.00,,,0.00,Wunderground v.1.15,2013-05-20 08:57:00,
2013-05-20 05:02:00,77.4,72.9,30.02,ESE,108,0.0,0.0,86,0.00,,,0.00,Wunderground v.1.15,2013-05-20 09:02:00,
2013-05-20 05:07:00,77.4,72.9,30.02,ESE,108,0.0,2.0,86,0.00,,,0.00,Wunderground v.1.15,2013-05-20 09:07:00,
2013-05-20 05:12:00,77.3,72.8,30.02,ESE,118,2.0,2.0,86,0.00,,,0.00,Wunderground v.1.15,2013-05-20 09:12:00,
2013-05-20 05:17:00,77.2,72.7,30.02,SE,146,0.0,2.0,86,0.00,,,0.00,Wunderground v.1.15,2013-05-20 09:17:00,
2013-05-20 05:22:00,77.2,72.7,30.02,SE,124,0.0,1.0,86,0.00,,,0.00,Wunderground v.1.15,2013-05-20 09:22:00,
2013-05-20 05:27:00,77.2,72.7,30.02,ESE,112,0.0,1.0,86,0.00,,,0.00,Wunderground v.1.15,2013-05-20 09:27:00,
2013-05-20 05:32:00,77.1,72.6,30.01,East,94,1.0,1.0,86,0.00,,,0.00,Wunderground v.1.15,2013-05-20 09:32:00,
2013-05-20 05:37:00,77.1,72.6,30.01,ESE,117,1.0,1.0,86,0.00,,,0.00,Wunderground v.1.15,2013-05-20 09:37:00,
2013-05-20 05:42:00,77.1,72.9,30.01,East,101,0.0,3.0,87,0.00,,,0.00,Wunderground v.1.15,2013-05-20 09:42:00,
2013-05-20 05:47:00,77.2,73.0,30.01,East,95,2.0,3.0,87,0.00,,,0.00,Wunderground v.1.15,2013-05-20 09:47:00,
2013-05-20 05:52:00,77.3,73.1,30.01,East,90,0.0,3.0,87,0.00,,,0.00,Wunderground v.1.15,2013-05-20 09:52:00,
2013-05-20 05:57:00,77.4,73.2,30.02,East,97,0.0,3.0,87,0.00,,,0.00,Wunderground v.1.15,2013-05-20 09:57:00,
2013-05-20 06:02:00,77.5,73.3,30.02,East,82,0.0,2.0,87,0.00,,,0.00,Wunderground v.1.15,2013-05-20 10:02:00,
2013-05-20 06:07:00,77.5,73.3,30.02,East,98,0.0,2.0,87,0.00,,,0.00,Wunderground v.1.15,2013-05-20 10:07:00,
2013-05-20 06:12:00,77.7,73.2,30.02,SE,130,0.0,3.0,86,0.00,,,0.00,Wunderground v.1.15,2013-05-20 10:12:00,
2013-05-20 06:17:00,77.8,73.3,30.02,East,101,1.0,3.0,86,0.00,,,0.00,Wunderground v.1.15,2013-05-20 10:17:00,
2013-05-20 06:22:00,77.8,73.3,30.02,ESE,103,0.0,5.0,86,0.00,,,0.00,Wunderground v.1.15,2013-05-20 10:22:00,
2013-05-20 06:27:00,78.0,73.5,30.02,East,94,0.0,5.0,86,0.00,,,0.00,Wunderground v.1.15,2013-05-20 10:27:00,
2013-05-20 06:32:00,78.1,73.6,30.02,SE,128,1.0,3.0,86,0.00,,,0.00,Wunderground v.1.15,2013-05-20 10:32:00,
2013-05-20 06:37:00,78.2,74.0,30.03,SSE,152,3.0,4.0,87,0.00,,,0.00,Wunderground v.1.15,2013-05-20 10:37:00,
2013-05-20 06:42:00,78.1,73.9,30.03,ESE,111,0.0,3.0,87,0.00,,,0.00,Wunderground v.1.15,2013-05-20 10:42:00,
2013-05-20 06:47:00,77.9,73.7,30.03,SSE,158,0.0,4.0,87,0.00,,,0.00,Wunderground v.1.15,2013-05-20 10:47:00,
2013-05-20 06:52:00,77.7,73.5,30.03,ESE,108,0.0,2.0,87,0.00,,,0.00,Wunderground v.1.15,2013-05-20 10:52:00,
2013-05-20 06:57:00,77.6,73.4,30.04,ESE,106,0.0,2.0,87,0.00,,,0.00,Wunderground v.1.15,2013-05-20 10:57:00,
2013-05-20 07:03:00,77.5,73.0,30.04,SW,235,2.0,2.0,86,0.00,,,0.00,Wunderground v.1.15,2013-05-20 11:03:00,
2013-05-20 07:08:00,77.4,72.9,30.04,SE,128,0.0,2.0,86,0.00,,,0.00,Wunderground v.1.15,2013-05-20 11:08:00,
2013-05-20 07:13:00,77.4,72.9,30.04,ESE,114,0.0,1.0,86,0.00,,,0.00,Wunderground v.1.15,2013-05-20 11:13:00,
2013-05-20 07:18:00,77.4,73.2,30.04,SSW,201,0.0,1.0,87,0.00,,,0.00,Wunderground v.1.15,2013-05-20 11:18:00,
2013-05-20 07:23:00,77.4,73.2,30.04,ESE,123,0.0,1.0,87,0.00,,,0.00,Wunderground v.1.15,2013-05-20 11:23:00,
2013-05-20 07:28:00,77.5,73.3,30.04,ESE,107,0.0,1.0,87,0.00,,,0.00,Wunderground v.1.15,2013-05-20 11:28:00,
2013-05-20 07:33:00,77.7,73.9,30.05,ESE,123,0.0,1.0,88,0.00,,,0.00,Wunderground v.1.15,2013-05-20 11:33:00,
2013-05-20 07:38:00,77.9,73.7,30.05,East,94,0.0,1.0,87,0.00,,,0.00,Wunderground v.1.15,2013-05-20 11:38:00,
2013-05-20 07:43:00,78.1,74.3,30.05,East,98,0.0,0.0,88,0.00,,,0.00,Wunderground v.1.15,2013-05-20 11:43:00,
2013-05-20 07:48:00,78.4,74.2,30.06,East,85,0.0,1.0,87,0.00,,,0.00,Wunderground v.1.15,2013-05-20 11:48:00,
2013-05-20 07:53:00,78.8,74.6,30.06,East,89,0.0,1.0,87,0.00,,,0.00,Wunderground v.1.15,2013-05-20 11:53:00,
2013-05-20 07:58:00,79.2,74.6,30.06,ESE,118,0.0,1.0,86,0.00,,,0.00,Wunderground v.1.15,2013-05-20 11:58:00,
2013-05-20 08:04:00,79.5,74.6,30.06,South,173,0.0,7.0,85,0.00,,,0.00,Wunderground v.1.15,2013-05-20 12:04:00,
2013-05-20 08:09:00,79.8,74.9,30.06,SW,228,0.0,7.0,85,0.00,,,0.00,Wunderground v.1.15,2013-05-20 12:09:00,
2013-05-20 08:14:00,80.1,74.8,30.06,WNW,285,0.0,2.0,84,0.00,,,0.00,Wunderground v.1.15,2013-05-20 12:14:00,
2013-05-20 08:19:00,80.3,74.7,30.06,ENE,64,1.0,4.0,83,0.00,,,0.00,Wunderground v.1.15,2013-05-20 12:19:00,
2013-05-20 08:24:00,80.5,74.5,30.06,SSW,193,1.0,4.0,82,0.00,,,0.00,Wunderground v.1.15,2013-05-20 12:24:00,
2013-05-20 08:29:00,80.7,74.7,30.06,SE,125,2.0,5.0,82,0.00,,,0.00,Wunderground v.1.15,2013-05-20 12:29:00,
2013-05-20 08:34:00,80.8,74.8,30.06,East,98,0.0,2.0,82,0.00,,,0.00,Wunderground v.1.15,2013-05-20 12:34:00,
2013-05-20 08:39:00,80.8,74.0,30.07,SSE,165,0.0,4.0,80,0.00,,,0.00,Wunderground v.1.15,2013-05-20 12:39:00,
2013-05-20 08:44:00,80.8,74.4,30.07,SSW,198,0.0,7.0,81,0.00,,,0.00,Wunderground v.1.15,2013-05-20 12:44:00,
2013-05-20 08:49:00,80.8,74.4,30.07,ESE,118,4.0,7.0,81,0.00,,,0.00,Wunderground v.1.15,2013-05-20 12:49:00,
2013-05-20 08:54:00,80.8,74.4,30.06,SE,134,0.0,4.0,81,0.00,,,0.00,Wunderground v.1.15,2013-05-20 12:54:00,
2013-05-20 08:59:00,80.9,74.5,30.07,SSE,158,0.0,5.0,81,0.00,,,0.00,Wunderground v.1.15,2013-05-20 12:59:00,
2013-05-20 09:04:00,81.0,74.2,30.07,ESE,110,2.0,7.0,80,0.00,,,0.00,Wunderground v.1.15,2013-05-20 13:04:00,
2013-05-20 09:09:00,81.1,74.3,30.07,ESE,121,0.0,7.0,80,0.00,,,0.00,Wunderground v.1.15,2013-05-20 13:09:00,
2013-05-20 09:14:00,81.2,74.1,30.07,ENE,58,6.0,8.0,79,0.00,,,0.00,Wunderground v.1.15,2013-05-20 13:14:00,
2013-05-20 09:19:00,81.3,74.2,30.07,WSW,249,1.0,8.0,79,0.00,,,0.00,Wunderground v.1.15,2013-05-20 13:19:00,
2013-05-20 09:24:00,81.4,74.3,30.07,SW,221,1.0,4.0,79,0.00,,,0.00,Wunderground v.1.15,2013-05-20 13:24:00,
2013-05-20 09:29:00,81.4,73.9,30.07,SSW,200,1.0,4.0,78,0.00,,,0.00,Wunderground v.1.15,2013-05-20 13:29:00,
2013-05-20 09:34:00,81.7,73.8,30.07,SE,146,1.0,5.0,77,0.00,,,0.00,Wunderground v.1.15,2013-05-20 13:34:00,
2013-05-20 09:39:00,82.1,74.2,30.07,ENE,61,4.0,5.0,77,0.00,,,0.00,Wunderground v.1.15,2013-05-20 13:39:00,
2013-05-20 09:44:00,82.3,74.0,30.07,SSE,159,2.0,6.0,76,0.00,,,0.00,Wunderground v.1.15,2013-05-20 13:44:00,
2013-05-20 09:49:00,82.1,73.8,30.07,ESE,117,1.0,6.0,76,0.00,,,0.00,Wunderground v.1.15,2013-05-20 13:49:00,
2013-05-20 09:54:00,82.0,74.1,30.07,ESE,121,1.0,4.0,77,0.00,,,0.00,Wunderground v.1.15,2013-05-20 13:54:00,
2013-05-20 09:59:00,82.4,73.7,30.07,ESE,106,4.0,6.0,75,0.00,,,0.00,Wunderground v.1.15,2013-05-20 13:59:00,
2013-05-20 10:04:00,82.7,74.0,30.07,ENE,72,0.0,5.0,75,0.00,,,0.00,Wunderground v.1.15,2013-05-20 14:04:00,
2013-05-20 10:09:00,83.1,73.9,30.07,ESE,108,5.0,7.0,74,0.00,,,0.00,Wunderground v.1.15,2013-05-20 14:09:00,
2013-05-20 10:14:00,83.1,73.9,30.07,ESE,115,3.0,7.0,74,0.00,,,0.00,Wunderground v.1.15,2013-05-20 14:14:00,
2013-05-20 10:19:00,83.1,73.9,30.07,NE,39,7.0,8.0,74,0.00,,,0.00,Wunderground v.1.15,2013-05-20 14:19:00,
2013-05-20 10:24:00,82.7,74.0,30.07,SE,143,0.0,6.0,75,0.00,,,0.00,Wunderground v.1.15,2013-05-20 14:24:00,
2013-05-20 10:29:00,82.4,74.5,30.07,East,79,4.0,9.0,77,0.00,,,0.00,Wunderground v.1.15,2013-05-20 14:29:00,
2013-05-20 10:34:00,81.9,74.4,30.07,East,98,3.0,8.0,78,0.00,,,0.00,Wunderground v.1.15,2013-05-20 14:34:00,
2013-05-20 10:39:00,81.1,74.7,30.07,ESE,105,7.0,14.0,81,1.11,,,0.07,Wunderground v.1.15,2013-05-20 14:39:00,
2013-05-20 10:44:00,80.1,74.5,30.07,East,93,1.0,11.0,83,0.31,,,0.10,Wunderground v.1.15,2013-05-20 14:44:00,
2013-05-20 10:49:00,79.9,74.6,30.07,ENE,72,0.0,11.0,84,0.09,,,0.10,Wunderground v.1.15,2013-05-20 14:49:00,
2013-05-20 10:54:00,80.1,74.8,30.06,SSE,160,2.0,6.0,84,0.05,,,0.10,Wunderground v.1.15,2013-05-20 14:54:00,
2013-05-20 10:59:00,80.3,74.7,30.06,East,98,0.0,7.0,83,0.04,,,0.10,Wunderground v.1.15,2013-05-20 14:59:00,
2013-05-20 11:04:00,80.7,75.1,30.07,SSW,208,4.0,7.0,83,0.00,,,0.10,Wunderground v.1.15,2013-05-20 15:04:00,
2013-05-20 11:09:00,80.8,74.4,30.07,SSE,148,0.0,7.0,81,0.00,,,0.10,Wunderground v.1.15,2013-05-20 15:09:00,
2013-05-20 11:14:00,80.9,74.9,30.07,SW,221,0.0,5.0,82,0.00,,,0.10,Wunderground v.1.15,2013-05-20 15:14:00,
2013-05-20 11:19:00,81.1,75.1,30.06,SSE,148,0.0,6.0,82,0.00,,,0.10,Wunderground v.1.15,2013-05-20 15:19:00,
2013-05-20 11:24:00,81.2,74.8,30.06,East,89,0.0,11.0,81,0.00,,,0.10,Wunderground v.1.15,2013-05-20 15:24:00,
2013-05-20 11:29:00,81.5,75.5,30.07,ESE,108,2.0,11.0,82,0.00,,,0.10,Wunderground v.1.15,2013-05-20 15:29:00,
2013-05-20 11:34:00,81.4,73.5,30.07,WNW,283,0.0,7.0,77,0.00,,,0.10,Wunderground v.1.15,2013-05-20 15:34:00,
2013-05-20 11:39:00,81.6,74.5,30.07,East,86,2.0,7.0,79,0.00,,,0.10,Wunderground v.1.15,2013-05-20 15:39:00,
2013-05-20 11:44:00,81.8,74.6,30.07,SSE,155,1.0,4.0,79,0.00,,,0.10,Wunderground v.1.15,2013-05-20 15:44:00,
2013-05-20 11:49:00,81.7,74.2,30.06,ESE,112,2.0,6.0,78,0.00,,,0.10,Wunderground v.1.15,2013-05-20 15:49:00,
2013-05-20 11:54:00,81.9,74.4,30.06,ENE,77,2.0,6.0,78,0.00,,,0.10,Wunderground v.1.15,2013-05-20 15:54:00,
2013-05-20 11:59:00,82.2,73.9,30.06,ESE,122,3.0,7.0,76,0.00,,,0.10,Wunderground v.1.15,2013-05-20 15:59:00,
2013-05-20 12:05:00,82.4,73.7,30.06,ENE,72,0.0,10.0,75,0.00,,,0.10,Wunderground v.1.15,2013-05-20 16:05:00,
2013-05-20 12:10:00,82.5,74.2,30.05,ENE,76,4.0,10.0,76,0.00,,,0.10,Wunderground v.1.15,2013-05-20 16:10:00,
2013-05-20 12:15:00,82.3,74.0,30.05,ESE,108,6.0,10.0,76,0.00,,,0.10,Wunderground v.1.15,2013-05-20 16:15:00,
2013-05-20 12:20:00,82.1,73.4,30.05,East,93,1.0,10.0,75,0.00,,,0.10,Wunderground v.1.15,2013-05-20 16:20:00,
2013-05-20 12:24:00,81.9,73.6,30.05,ESE,118,2.0,13.0,76,0.00,,,0.10,Wunderground v.1.15,2013-05-20 16:24:00,
2013-05-20 12:30:00,81.7,73.4,30.05,East,89,5.0,13.0,76,0.00,,,0.10,Wunderground v.1.15,2013-05-20 16:30:00,
2013-05-20 12:35:00,81.5,73.2,30.05,East,101,6.0,11.0,76,0.00,,,0.10,Wunderground v.1.15,2013-05-20 16:35:00,
2013-05-20 12:40:00,81.4,73.1,30.06,NNE,18,3.0,11.0,76,0.00,,,0.10,Wunderground v.1.15,2013-05-20 16:40:00,
2013-05-20 12:45:00,81.3,73.4,30.06,East,94,2.0,9.0,77,0.00,,,0.10,Wunderground v.1.15,2013-05-20 16:45:00,
2013-05-20 12:50:00,81.1,73.6,30.06,ENE,77,7.0,9.0,78,0.00,,,0.10,Wunderground v.1.15,2013-05-20 16:50:00,
2013-05-20 12:55:00,80.7,73.6,30.05,ENE,72,2.0,10.0,79,0.00,,,0.10,Wunderground v.1.15,2013-05-20 16:55:00,
2013-05-20 13:00:00,80.3,73.6,30.06,East,92,0.0,10.0,80,0.00,,,0.10,Wunderground v.1.15,2013-05-20 17:00:00,
2013-05-20 13:05:00,80.2,73.5,30.07,ESE,102,3.0,8.0,80,0.00,,,0.10,Wunderground v.1.15,2013-05-20 17:05:00,
2013-05-20 13:10:00,80.0,73.6,30.06,ENE,60,8.0,13.0,81,0.00,,,0.10,Wunderground v.1.15,2013-05-20 17:10:00,
2013-05-20 13:15:00,79.9,73.5,30.06,ENE,61,3.0,8.0,81,0.00,,,0.10,Wunderground v.1.15,2013-05-20 17:15:00,
2013-05-20 13:20:00,79.8,73.4,30.06,NNW,338,0.0,3.0,81,0.00,,,0.10,Wunderground v.1.15,2013-05-20 17:20:00,
2013-05-20 13:25:00,79.6,73.6,30.06,ESE,123,4.0,9.0,82,0.00,,,0.10,Wunderground v.1.15,2013-05-20 17:25:00,
2013-05-20 13:30:00,79.3,72.6,30.06,ESE,108,2.0,2.0,80,0.00,,,0.10,Wunderground v.1.15,2013-05-20 17:30:00,
2013-05-20 13:35:00,79.2,72.1,30.05,SE,146,0.0,4.0,79,0.00,,,0.11,Wunderground v.1.15,2013-05-20 17:35:00,
2013-05-20 13:40:00,78.8,72.8,30.05,East,89,7.0,9.0,82,0.22,,,0.13,Wunderground v.1.15,2013-05-20 17:40:00,
2013-05-20 13:45:00,78.5,73.6,30.06,East,101,1.0,9.0,85,0.12,,,0.14,Wunderground v.1.15,2013-05-20 17:45:00,
2013-05-20 13:50:00,78.2,73.7,30.07,ESE,106,0.0,1.0,86,0.08,,,0.14,Wunderground v.1.15,2013-05-20 17:50:00,
2013-05-20 13:55:00,78.0,73.5,30.08,East,93,0.0,1.0,86,0.05,,,0.15,Wunderground v.1.15,2013-05-20 17:55:00,
2013-05-20 14:00:00,77.9,73.7,30.08,ESE,105,0.0,0.0,87,0.05,,,0.15,Wunderground v.1.15,2013-05-20 18:00:00,
2013-05-20 14:05:00,77.6,73.1,30.07,SSW,193,0.0,3.0,86,0.05,,,0.15,Wunderground v.1.15,2013-05-20 18:05:00,
2013-05-20 14:10:00,77.2,72.3,30.06,SSE,166,2.0,4.0,85,0.05,,,0.16,Wunderground v.1.15,2013-05-20 18:10:00,
2013-05-20 14:15:00,77.1,72.6,30.06,SE,145,0.0,4.0,86,0.05,,,0.16,Wunderground v.1.15,2013-05-20 18:15:00,
2013-05-20 14:20:00,76.8,72.3,30.06,NE,41,0.0,2.0,86,0.04,,,0.16,Wunderground v.1.15,2013-05-20 18:20:00,
2013-05-20 14:25:00,76.7,72.5,30.07,NE,41,0.0,2.0,87,0.00,,,0.16,Wunderground v.1.15,2013-05-20 18:25:00,
2013-05-20 14:30:00,76.6,72.8,30.07,NE,43,0.0,1.0,88,0.00,,,0.16,Wunderground v.1.15,2013-05-20 18:30:00,
2013-05-20 14:35:00,76.5,73.0,30.06,NE,43,0.0,1.0,89,0.00,,,0.16,Wunderground v.1.15,2013-05-20 18:35:00,
2013-05-20 14:40:00,76.4,72.9,30.06,ENE,65,0.0,1.0,89,0.00,,,0.16,Wunderground v.1.15,2013-05-20 18:40:00,
2013-05-20 14:45:00,76.3,73.1,30.05,NE,53,1.0,5.0,90,0.00,,,0.16,Wunderground v.1.15,2013-05-20 18:45:00,
2013-05-20 14:50:00,76.0,73.2,30.05,NE,34,1.0,6.0,91,0.00,,,0.16,Wunderground v.1.15,2013-05-20 18:50:00,
2013-05-20 14:55:00,75.8,73.3,30.05,NE,42,0.0,6.0,92,0.00,,,0.16,Wunderground v.1.15,2013-05-20 18:55:00,
2013-05-20 15:00:00,75.7,73.2,30.05,NNE,13,1.0,1.0,92,0.00,,,0.17,Wunderground v.1.15,2013-05-20 19:00:00,
2013-05-20 15:05:00,75.5,73.0,30.06,East,80,0.0,7.0,92,0.00,,,0.17,Wunderground v.1.15,2013-05-20 19:05:00,
2013-05-20 15:10:00,75.4,72.9,30.06,East,82,3.0,3.0,92,0.00,,,0.17,Wunderground v.1.15,2013-05-20 19:10:00,
2013-05-20 15:15:00,75.3,72.8,30.06,ENE,57,0.0,4.0,92,0.00,,,0.17,Wunderground v.1.15,2013-05-20 19:15:00,
2013-05-20 15:20:00,74.8,70.7,30.06,East,98,2.0,2.0,87,0.00,,,0.17,Wunderground v.1.15,2013-05-20 19:20:00,
2013-05-20 15:25:00,74.8,70.7,30.06,East,87,0.0,5.0,87,0.00,,,0.17,Wunderground v.1.15,2013-05-20 19:25:00,
2013-05-20 15:30:00,74.6,69.8,30.06,ENE,77,3.0,9.0,85,0.00,,,0.17,Wunderground v.1.15,2013-05-20 19:30:00,
2013-05-20 15:35:00,73.5,68.4,30.06,ENE,65,6.0,14.0,84,0.00,,,0.18,Wunderground v.1.15,2013-05-20 19:35:00,
2013-05-20 15:40:00,73.2,68.4,30.05,East,94,4.0,6.0,85,0.00,,,0.18,Wunderground v.1.15,2013-05-20 19:40:00,
2013-05-20 15:45:00,73.9,69.8,30.05,SSE,152,0.0,9.0,87,0.00,,,0.18,Wunderground v.1.15,2013-05-20 19:45:00,
2013-05-20 15:50:00,73.8,68.7,30.04,East,96,3.0,4.0,84,0.00,,,0.18,Wunderground v.1.15,2013-05-20 19:50:00,
2013-05-20 15:55:00,73.8,68.0,30.04,ENE,68,9.0,10.0,82,0.00,,,0.19,Wunderground v.1.15,2013-05-20 19:55:00,
2013-05-20 16:00:00,73.7,68.2,30.04,ENE,75,3.0,7.0,83,0.14,,,0.20,Wunderground v.1.15,2013-05-20 20:00:00,
2013-05-20 16:05:00,73.2,68.4,30.04,SW,224,0.0,8.0,85,0.10,,,0.21,Wunderground v.1.15,2013-05-20 20:05:00,
2013-05-20 16:10:00,73.0,68.9,30.04,East,79,0.0,2.0,87,0.07,,,0.21,Wunderground v.1.15,2013-05-20 20:10:00,
2013-05-20 16:15:00,73.2,69.8,30.03,NE,53,0.0,3.0,89,0.07,,,0.22,Wunderground v.1.15,2013-05-20 20:15:00,
2013-05-20 16:20:00,73.6,70.8,30.03,ESE,115,0.0,1.0,91,0.06,,,0.22,Wunderground v.1.15,2013-05-20 20:20:00,
2013-05-20 16:25:00,74.0,71.5,30.03,East,82,3.0,4.0,92,0.04,,,0.22,Wunderground v.1.15,2013-05-20 20:25:00,
2013-05-20 16:30:00,74.3,71.8,30.03,East,88,0.0,1.0,92,0.00,,,0.22,Wunderground v.1.15,2013-05-20 20:30:00,
2013-05-20 16:35:00,74.6,72.4,30.03,ENE,77,0.0,4.0,93,0.00,,,0.24,Wunderground v.1.15,2013-05-20 20:35:00,
2013-05-20 16:40:00,74.8,72.6,30.03,East,93,0.0,1.0,93,0.07,,,0.24,Wunderground v.1.15,2013-05-20 20:40:00,
2013-05-20 16:45:00,74.9,72.7,30.03,East,96,0.0,1.0,93,0.07,,,0.25,Wunderground v.1.15,2013-05-20 20:45:00,
2013-05-20 16:50:00,74.9,72.7,30.03,ENE,77,0.0,0.0,93,0.07,,,0.26,Wunderground v.1.15,2013-05-20 20:50:00,
2013-05-20 16:55:00,74.9,72.7,30.03,East,79,0.0,1.0,93,0.07,,,0.26,Wunderground v.1.15,2013-05-20 20:55:00,
2013-05-20 17:00:00,75.0,73.2,30.03,East,87,0.0,0.0,94,0.07,,,0.27,Wunderground v.1.15,2013-05-20 21:00:00,
2013-05-20 17:06:00,75.1,73.3,30.03,SE,132,0.0,1.0,94,0.07,,,0.27,Wunderground v.1.15,2013-05-20 21:06:00,
2013-05-20 17:11:00,75.1,73.3,30.03,SE,132,0.0,0.0,94,0.06,,,0.28,Wunderground v.1.15,2013-05-20 21:11:00,
2013-05-20 17:16:00,75.2,73.4,30.02,SE,132,0.0,0.0,94,0.06,,,0.28,Wunderground v.1.15,2013-05-20 21:16:00,
2013-05-20 17:21:00,75.3,73.8,30.02,SE,132,0.0,0.0,95,0.04,,,0.28,Wunderground v.1.15,2013-05-20 21:21:00,
2013-05-20 17:26:00,75.4,73.6,30.02,SE,132,0.0,0.0,94,0.00,,,0.28,Wunderground v.1.15,2013-05-20 21:26:00,
2013-05-20 17:31:00,75.4,73.6,30.02,SE,133,0.0,0.0,94,0.00,,,0.29,Wunderground v.1.15,2013-05-20 21:31:00,
2013-05-20 17:36:00,75.4,73.9,30.01,SE,132,0.0,0.0,95,0.00,,,0.29,Wunderground v.1.15,2013-05-20 21:36:00,
2013-05-20 17:41:00,75.5,74.0,30.01,SE,132,0.0,0.0,95,0.00,,,0.29,Wunderground v.1.15,2013-05-20 21:41:00,
2013-05-20 17:46:00,75.7,74.2,30.01,SE,132,0.0,0.0,95,0.00,,,0.29,Wunderground v.1.15,2013-05-20 21:46:00,
2013-05-20 17:51:00,75.8,74.3,30.01,SE,132,0.0,0.0,95,0.04,,,0.30,Wunderground v.1.15,2013-05-20 21:51:00,
2013-05-20 17:56:00,76.0,74.5,30.00,SE,132,0.0,0.0,95,0.04,,,0.30,Wunderground v.1.15,2013-05-20 21:56:00,
2013-05-20 18:01:00,76.0,74.5,30.00,SE,132,0.0,0.0,95,0.04,,,0.30,Wunderground v.1.15,2013-05-20 22:01:00,
2013-05-20 18:06:00,76.1,74.6,30.00,SE,132,0.0,0.0,95,0.00,,,0.30,Wunderground v.1.15,2013-05-20 22:06:00,
2013-05-20 18:11:00,76.2,74.7,30.00,SE,132,0.0,0.0,95,0.00,,,0.30,Wunderground v.1.15,2013-05-20 22:11:00,
2013-05-20 18:16:00,76.3,74.8,30.00,SE,133,0.0,0.0,95,0.00,,,0.30,Wunderground v.1.15,2013-05-20 22:16:00,
2013-05-20 18:21:00,76.3,74.8,30.00,SE,133,0.0,0.0,95,0.00,,,0.30,Wunderground v.1.15,2013-05-20 22:21:00,
2013-05-20 18:26:00,76.4,74.9,30.00,East,82,1.0,1.0,95,0.00,,,0.30,Wunderground v.1.15,2013-05-20 22:26:00,
2013-05-20 18:31:00,76.4,74.9,29.99,ENE,68,0.0,0.0,95,0.00,,,0.30,Wunderground v.1.15,2013-05-20 22:31:00,
2013-05-20 18:36:00,76.5,75.0,29.99,East,86,1.0,2.0,95,0.00,,,0.30,Wunderground v.1.15,2013-05-20 22:36:00,
2013-05-20 18:41:00,76.8,75.3,29.99,NE,53,0.0,1.0,95,0.00,,,0.30,Wunderground v.1.15,2013-05-20 22:41:00,
2013-05-20 18:46:00,77.4,75.9,29.99,East,84,0.0,2.0,95,0.00,,,0.30,Wunderground v.1.15,2013-05-20 22:46:00,
2013-05-20 18:51:00,77.8,76.3,29.99,East,86,0.0,1.0,95,0.00,,,0.30,Wunderground v.1.15,2013-05-20 22:51:00,
2013-05-20 18:56:00,78.2,76.3,29.99,East,96,0.0,2.0,94,0.00,,,0.30,Wunderground v.1.15,2013-05-20 22:56:00,
2013-05-20 19:01:00,78.5,76.3,29.98,East,84,0.0,1.0,93,0.00,,,0.30,Wunderground v.1.15,2013-05-20 23:01:00,
2013-05-20 19:06:00,78.8,76.3,29.98,East,92,0.0,3.0,92,0.00,,,0.30,Wunderground v.1.15,2013-05-20 23:06:00,
2013-05-20 19:11:00,78.9,76.0,29.98,NNE,27,1.0,2.0,91,0.00,,,0.30,Wunderground v.1.15,2013-05-20 23:11:00,
2013-05-20 19:16:00,78.9,76.0,29.98,NE,36,1.0,3.0,91,0.00,,,0.30,Wunderground v.1.15,2013-05-20 23:16:00,
2013-05-20 19:21:00,78.9,76.0,29.98,East,79,2.0,2.0,91,0.00,,,0.30,Wunderground v.1.15,2013-05-20 23:21:00,
2013-05-20 19:26:00,78.8,75.9,29.99,East,93,0.0,2.0,91,0.00,,,0.30,Wunderground v.1.15,2013-05-20 23:26:00,
2013-05-20 19:31:00,78.6,75.8,29.99,East,89,0.0,1.0,91,0.00,,,0.30,Wunderground v.1.15,2013-05-20 23:31:00,
2013-05-20 19:36:00,78.4,75.6,30.00,ENE,72,0.0,2.0,91,0.00,,,0.30,Wunderground v.1.15,2013-05-20 23:36:00,
2013-05-20 19:41:00,78.2,75.7,30.00,NE,36,0.0,2.0,92,0.00,,,0.30,Wunderground v.1.15,2013-05-20 23:41:00,
2013-05-20 19:46:00,78.1,75.6,30.00,ENE,58,0.0,2.0,92,0.00,,,0.30,Wunderground v.1.15,2013-05-20 23:46:00,
2013-05-20 19:51:00,78.0,75.5,30.01,ENE,58,0.0,0.0,92,0.00,,,0.30,Wunderground v.1.15,2013-05-20 23:51:00,
2013-05-20 19:56:00,77.8,75.6,30.01,ENE,58,0.0,0.0,93,0.00,,,0.30,Wunderground v.1.15,2013-05-20 23:56:00,
2013-05-20 20:01:00,77.7,75.5,30.01,ENE,58,0.0,0.0,93,0.00,,,0.30,Wunderground v.1.15,2013-05-21 00:01:00,
2013-05-20 20:07:00,77.5,75.3,30.02,ENE,58,0.0,0.0,93,0.00,,,0.30,Wunderground v.1.15,2013-05-21 00:07:00,
2013-05-20 20:12:00,77.3,75.1,30.02,ENE,61,0.0,0.0,93,0.00,,,0.30,Wunderground v.1.15,2013-05-21 00:12:00,
2013-05-20 20:17:00,77.2,75.0,30.03,ENE,61,0.0,0.0,93,0.00,,,0.30,Wunderground v.1.15,2013-05-21 00:17:00,
2013-05-20 20:22:00,77.1,75.2,30.03,ENE,61,0.0,0.0,94,0.00,,,0.30,Wunderground v.1.15,2013-05-21 00:22:00,
2013-05-20 20:27:00,77.1,75.2,30.04,NNE,30,0.0,0.0,94,0.00,,,0.30,Wunderground v.1.15,2013-05-21 00:27:00,
2013-05-20 20:32:00,77.0,75.1,30.04,NNE,33,0.0,0.0,94,0.00,,,0.30,Wunderground v.1.15,2013-05-21 00:32:00,
2013-05-20 20:37:00,76.9,75.0,30.04,East,96,0.0,1.0,94,0.00,,,0.30,Wunderground v.1.15,2013-05-21 00:37:00,
2013-05-20 20:42:00,76.8,74.9,30.04,East,86,0.0,1.0,94,0.00,,,0.30,Wunderground v.1.15,2013-05-21 00:42:00,
2013-05-20 20:47:00,76.8,74.9,30.03,East,82,0.0,1.0,94,0.00,,,0.30,Wunderground v.1.15,2013-05-21 00:47:00,
2013-05-20 20:52:00,76.8,74.9,30.04,NE,56,1.0,1.0,94,0.00,,,0.30,Wunderground v.1.15,2013-05-21 00:52:00,
2013-05-20 20:57:00,76.3,74.1,30.05,NE,46,3.0,4.0,93,0.00,,,0.30,Wunderground v.1.15,2013-05-21 00:57:00,
2013-05-20 21:02:00,75.1,72.3,30.04,NNW,342,0.0,1.0,91,0.00,,,0.30,Wunderground v.1.15,2013-05-21 01:02:00,
2013-05-20 21:07:00,74.4,71.3,30.05,NE,39,0.0,4.0,90,3.41,,,0.37,Wunderground v.1.15,2013-05-21 01:07:00,
2013-05-20 21:12:00,73.8,71.0,30.05,SE,131,1.0,2.0,91,1.38,,,0.62,Wunderground v.1.15,2013-05-21 01:12:00,
2013-05-20 21:17:00,73.5,71.0,30.05,West,273,4.0,5.0,92,0.54,,,0.68,Wunderground v.1.15,2013-05-21 01:17:00,
2013-05-20 21:22:00,73.5,71.4,30.06,NNW,330,3.0,5.0,93,0.60,,,0.72,Wunderground v.1.15,2013-05-21 01:22:00,
2013-05-20 21:27:00,73.3,71.2,30.07,NNE,18,0.0,5.0,93,0.43,,,0.76,Wunderground v.1.15,2013-05-21 01:27:00,
2013-05-20 21:32:00,73.1,71.3,30.07,ENE,77,2.0,10.0,94,0.30,,,0.79,Wunderground v.1.15,2013-05-21 01:32:00,
2013-05-20 21:37:00,72.3,69.8,30.07,East,94,0.0,11.0,92,0.21,,,0.81,Wunderground v.1.15,2013-05-21 01:37:00,
2013-05-20 21:42:00,71.1,68.7,30.07,ENE,61,3.0,9.0,92,0.10,,,0.82,Wunderground v.1.15,2013-05-21 01:42:00,
2013-05-20 21:47:00,70.9,69.1,30.07,NNE,32,5.0,9.0,94,0.09,,,0.82,Wunderground v.1.15,2013-05-21 01:47:00,
2013-05-20 21:52:00,70.8,69.0,30.06,ENE,64,4.0,10.0,94,0.05,,,0.82,Wunderground v.1.15,2013-05-21 01:52:00,
2013-05-20 21:57:00,70.7,68.9,30.06,East,85,3.0,10.0,94,0.04,,,0.82,Wunderground v.1.15,2013-05-21 01:57:00,
2013-05-20 22:02:00,70.4,68.3,30.07,South,191,1.0,3.0,93,0.00,,,0.82,Wunderground v.1.15,2013-05-21 02:02:00,
2013-05-20 22:07:00,70.2,68.1,30.08,ENE,70,1.0,5.0,93,0.00,,,0.82,Wunderground v.1.15,2013-05-21 02:07:00,
2013-05-20 22:12:00,70.0,67.9,30.08,ESE,110,2.0,2.0,93,0.00,,,0.83,Wunderground v.1.15,2013-05-21 02:12:00,
2013-05-20 22:18:00,70.0,67.9,30.08,ESE,111,0.0,2.0,93,0.00,,,0.83,Wunderground v.1.15,2013-05-21 02:18:00,
2013-05-20 22:23:00,69.9,67.8,30.07,ESE,116,0.0,0.0,93,0.00,,,0.83,Wunderground v.1.15,2013-05-21 02:23:00,
2013-05-20 22:28:00,69.8,68.0,30.07,ENE,75,0.0,1.0,94,0.00,,,0.83,Wunderground v.1.15,2013-05-21 02:28:00,
2013-05-20 22:33:00,70.0,68.2,30.07,SW,219,0.0,3.0,94,0.00,,,0.83,Wunderground v.1.15,2013-05-21 02:33:00,
2013-05-20 22:38:00,70.5,69.0,30.07,SW,226,0.0,3.0,95,0.00,,,0.84,Wunderground v.1.15,2013-05-21 02:38:00,
2013-05-20 22:43:00,70.8,69.3,30.08,SSW,201,0.0,0.0,95,0.00,,,0.84,Wunderground v.1.15,2013-05-21 02:43:00,
2013-05-20 22:48:00,70.9,69.4,30.08,SW,228,2.0,2.0,95,0.00,,,0.84,Wunderground v.1.15,2013-05-21 02:48:00,
2013-05-20 22:53:00,71.2,69.7,30.08,SW,217,0.0,1.0,95,0.00,,,0.85,Wunderground v.1.15,2013-05-21 02:53:00,
2013-05-20 22:58:00,71.3,70.1,30.08,West,262,0.0,1.0,96,0.00,,,0.85,Wunderground v.1.15,2013-05-21 02:58:00,
2013-05-20 23:04:00,71.4,70.2,30.08,WNW,295,0.0,1.0,96,0.05,,,0.85,Wunderground v.1.15,2013-05-21 03:04:00,
2013-05-20 23:09:00,71.3,70.1,30.07,West,278,0.0,1.0,96,0.05,,,0.86,Wunderground v.1.15,2013-05-21 03:09:00,
2013-05-20 23:14:00,71.2,70.0,30.08,NE,39,0.0,0.0,96,0.05,,,0.86,Wunderground v.1.15,2013-05-21 03:14:00,
2013-05-20 23:19:00,71.3,70.1,30.08,NE,39,0.0,0.0,96,0.04,,,0.86,Wunderground v.1.15,2013-05-21 03:19:00,
2013-05-20 23:24:00,71.5,70.3,30.09,NE,39,0.0,0.0,96,0.00,,,0.86,Wunderground v.1.15,2013-05-21 03:24:00,
2013-05-20 23:29:00,71.6,70.4,30.09,NE,39,0.0,0.0,96,0.00,,,0.87,Wunderground v.1.15,2013-05-21 03:29:00,
2013-05-20 23:34:00,71.8,70.6,30.09,West,263,0.0,1.0,96,0.00,,,0.87,Wunderground v.1.15,2013-05-21 03:34:00,
2013-05-20 23:39:00,71.7,70.2,30.08,WSW,238,2.0,2.0,95,0.00,,,0.87,Wunderground v.1.15,2013-05-21 03:39:00,
2013-05-20 23:44:00,71.4,69.9,30.07,West,267,1.0,3.0,95,0.00,,,0.87,Wunderground v.1.15,2013-05-21 03:44:00,
2013-05-20 23:49:00,71.1,69.6,30.07,SSW,209,0.0,3.0,95,0.00,,,0.87,Wunderground v.1.15,2013-05-21 03:49:00,
2013-05-20 23:54:00,71.0,69.5,30.06,WSW,245,0.0,2.0,95,0.00,,,0.87,Wunderground v.1.15,2013-05-21 03:54:00,
2013-05-20 23:59:00,70.9,69.4,30.06,West,269,0.0,2.0,95,0.00,,,0.87,Wunderground v.1.15,2013-05-21 03:59:00,